GW3762 Weather Reports


Display with metric or nautical units.
time (UTC)temp
F
wind
direction
speed
MPH
gust
MPH
rain 1hr
in
rain 24hr
in
rain mn
in
humidity
%
barometer
mb
20260903195000 78 68 0.0 3.0 0.00 0.43 0.43 84 1013.1
20260903194500 78 68 1.0 4.0 0.00 0.43 0.43 85 1013.1
20260903193959 77 55 2.0 5.0 0.00 0.43 0.43 85 1013.2
20260903193500 77 69 0.0 2.0 0.00 0.43 0.43 85 1013.2
20260903193003 77 69 0.0 0.0 0.00 0.43 0.43 87 1013.2
20260903192459 77 69 0.0 3.0 0.00 0.43 0.43 87 1013.2
20260903190500 77 92 0.0 3.0 0.00 0.43 0.43 86 1013.4
20260903190001 78 92 0.0 3.0 0.00 0.43 0.43 86 1013.5
20260903185459 78 115 0.0 3.0 0.00 0.43 0.43 87 1013.5
20260903184459 77 260 0.0 0.0 0.00 0.43 0.43 88 1013.6
20260903183459 76 260 0.0 1.0 0.00 0.43 0.43 88 1013.7
20260903182459 76 260 1.0 2.0 0.00 0.43 0.43 89 1013.8
20260903181959 76 260 0.0 3.0 0.00 0.43 0.43 89 1013.8
20260903180959 75 260 0.0 3.0 0.00 0.43 0.43 90 1013.8
20260903180459 75 260 1.0 3.0 0.00 0.43 0.43 90 1013.8
20260903180002 75 257 2.0 3.0 0.00 0.43 0.43 90 1013.8
20260903175501 75 257 2.0 4.0 0.00 0.43 0.43 90 1013.8
20260903174959 76 255 2.0 4.0 0.00 0.43 0.43 89 1013.9
20260903174459 76 212 0.0 3.0 0.00 0.43 0.43 90 1013.8
20260903174000 75 74 0.0 3.0 0.00 0.43 0.43 91 1013.8
20260903173459 74 242 0.0 2.0 0.00 0.43 0.43 92 1013.9
20260903172959 74 242 0.0 2.0 0.00 0.43 0.43 91 1013.9
20260903172459 74 271 1.0 2.0 0.00 0.43 0.43 91 1014.0
20260903171959 74 271 2.0 3.0 0.00 0.43 0.43 91 1013.9
20260903171459 74 271 1.0 4.0 0.00 0.43 0.43 90 1013.9
20260903170500 74 257 2.0 4.0 0.00 0.43 0.43 91 1014.1
20260903165458 74 200 0.0 2.0 0.00 0.43 0.43 93 1014.0
20260903164958 73 204 0.0 3.0 0.00 0.43 0.43 93 1014.1
20260903164459 73 199 0.0 3.0 0.00 0.43 0.43 92 1014.0
20260903163958 72 244 1.0 3.0 0.00 0.43 0.43 92 1014.0
20260903163458 72 205 0.0 0.0 0.00 0.43 0.43 92 1014.0
20260903162959 73 198 0.0 2.0 0.00 0.43 0.43 92 1014.2
20260903162457 72 252 0.0 4.0 0.00 0.43 0.43 92 1014.3
20260903161958 72 252 2.0 6.0 0.00 0.43 0.43 92 1014.3
20260903161458 73 257 3.0 6.0 0.00 0.43 0.43 93 1014.4
20260903160958 73 268 3.0 4.0 0.00 0.43 0.43 94 1014.5
20260903160457 72 257 4.0 4.0 0.00 0.43 0.43 94 1014.5
20260903160001 71 262 2.0 4.0 0.00 0.43 0.43 94 1014.5
20260903155458 71 227 3.0 3.0 0.00 0.43 0.43 94 1014.5
20260903154959 71 254 2.0 4.0 0.00 0.43 0.43 94 1014.4
20260903154500 71 254 2.0 4.0 0.00 0.43 0.43 94 1014.5
20260903154000 71 254 2.0 4.0 0.00 0.43 0.43 94 1014.6
20260903153459 71 254 1.0 4.0 0.00 0.43 0.43 94 1014.7
20260903152959 71 254 4.0 4.0 0.00 0.43 0.43 95 1014.7
20260903152459 70 254 2.0 4.0 0.00 0.43 0.43 95 1014.8
20260903152002 70 254 3.0 5.0 0.00 0.43 0.43 95 1014.8
20260903151459 70 252 3.0 5.0 0.00 0.43 0.43 95 1014.8
20260903150959 70 239 2.0 4.0 0.00 0.43 0.43 95 1014.9
20260903150459 70 250 3.0 3.0 0.00 0.43 0.43 95 1014.9
20260903145459 70 246 1.0 5.0 0.00 0.43 0.43 95 1014.8
20260903144959 70 257 2.0 6.0 0.00 0.43 0.43 96 1014.7
20260903144459 70 257 1.0 4.0 0.00 0.43 0.43 96 1014.8
20260903143500 70 234 2.0 3.0 0.00 0.43 0.43 96 1014.7
20260903142958 70 261 1.0 4.0 0.00 0.43 0.43 96 1014.7
20260903142500 69 261 2.0 4.0 0.00 0.43 0.43 96 1014.8
20260903141959 69 261 1.0 3.0 0.00 0.43 0.43 96 1014.8
20260903141459 69 261 0.0 0.0 0.00 0.43 0.43 96 1014.9
20260903141000 69 261 0.0 0.0 0.00 0.43 0.43 96 1015.0
20260903140500 69 261 0.0 0.0 0.00 0.43 0.43 96 1015.1
20260903135958 69 261 0.0 0.0 0.00 0.43 0.43 96 1015.0
20260903135458 69 261 0.0 0.0 0.00 0.43 0.43 96 1015.0
20260903135001 69 261 0.0 0.0 0.00 0.43 0.43 96 1015.0
20260903134458 69 261 0.0 0.0 0.00 0.43 0.43 96 1015.2
20260903134001 68 261 0.0 0.0 0.00 0.43 0.43 96 1015.2
20260903133459 68 261 0.0 0.0 0.00 0.43 0.43 96 1015.3
20260903131958 68 261 0.0 0.0 0.00 0.43 0.43 96 1015.3
20260903131508 68 261 0.0 0.0 0.00 0.43 0.43 96 1015.5
20260903131000 68 261 0.0 0.0 0.00 0.43 0.43 96 1015.6
20260903125958 68 261 0.0 0.0 0.00 0.43 0.43 96 1015.5
20260903125001 68 261 0.0 0.0 0.00 0.43 0.43 96 1015.6
20260903123958 68 261 0.0 0.0 0.00 0.43 0.43 96 1015.5
20260903123501 67 261 0.0 0.0 0.00 0.43 0.43 96 1015.7
20260903122959 67 261 0.0 0.0 0.00 0.43 0.43 96 1015.9
20260903122458 67 261 0.0 0.0 0.00 0.43 0.43 96 1016.0
20260903121958 67 261 0.0 0.0 0.00 0.43 0.43 96 1015.8
20260903120958 67 261 0.0 0.0 0.00 0.43 0.43 96 1016.0
20260903115458 67 261 2.0 3.0 0.00 0.43 0.43 96 1016.1
20260903114957 67 261 1.0 3.0 0.00 0.43 0.43 96 1016.1
20260903114458 67 261 1.0 3.0 0.00 0.43 0.43 96 1016.3
20260903113958 67 261 3.0 3.0 0.00 0.43 0.43 96 1016.3
20260903111958 67 261 2.0 3.0 0.00 0.43 0.43 96 1016.1
20260903111458 67 261 2.0 3.0 0.00 0.43 0.43 96 1016.1
20260903110958 67 261 2.0 3.0 0.00 0.43 0.43 96 1016.1
20260903110457 67 261 1.0 4.0 0.00 0.43 0.43 96 1016.1
20260903105459 67 261 3.0 3.0 0.00 0.43 0.43 96 1016.0
20260903105000 67 261 1.0 3.0 0.00 0.43 0.43 96 1016.0
20260903104459 67 261 1.0 3.0 0.00 0.43 0.43 96 1016.0
20260903103959 67 237 0.0 0.0 0.00 0.43 0.43 96 1015.9
20260903103500 66 235 0.0 0.0 0.00 0.43 0.43 96 1015.7
20260903102959 66 235 0.0 0.0 0.00 0.43 0.43 96 1015.7
20260903102459 66 235 0.0 0.0 0.00 0.43 0.43 96 1015.8
20260903101958 66 234 0.0 0.0 0.00 0.43 0.43 96 1016.0
20260903101459 66 234 0.0 0.0 0.00 0.43 0.43 96 1015.9
20260903101000 66 234 0.0 0.0 0.00 0.43 0.43 96 1015.8
20260903100459 66 234 0.0 0.0 0.00 0.43 0.43 96 1015.6
20260903095959 66 233 0.0 0.0 0.00 0.43 0.43 96 1015.3
20260903095458 66 233 0.0 0.0 0.00 0.43 0.43 96 1015.3
20260903094959 66 233 0.0 0.0 0.00 0.43 0.43 96 1015.4
20260903094458 66 233 0.0 0.0 0.01 0.43 0.43 96 1015.5
20260903093958 66 232 0.0 0.0 0.01 0.43 0.43 96 1015.4
20260903093459 66 232 0.0 0.0 0.01 0.43 0.43 96 1015.3
20260903092958 66 232 0.0 0.0 0.01 0.43 0.43 96 1015.3
20260903092458 66 232 0.0 0.0 0.01 0.43 0.43 96 1015.3
20260903091958 66 232 0.0 0.0 0.01 0.43 0.43 96 1015.3
20260903090958 66 232 0.0 0.0 0.01 0.43 0.43 96 1015.6
20260903083958 66 64 0.0 0.0 0.00 0.42 0.42 96 1015.6
20260903082957 66 64 0.0 0.0 0.00 0.42 0.42 96 1015.8
20260903082459 66 64 0.0 0.0 0.00 0.42 0.42 96 1015.8
20260903081958 66 64 0.0 0.0 0.00 0.42 0.42 95 1016.0
20260903081457 66 64 0.0 0.0 0.00 0.42 0.42 95 1016.1
20260903080958 66 64 0.0 0.0 0.00 0.42 0.42 95 1016.1
20260903080458 66 64 0.0 0.0 0.00 0.42 0.42 95 1016.1
20260903080001 66 64 0.0 0.0 0.00 0.42 0.42 95 1016.2
20260903075458 65 64 0.0 0.0 0.00 0.42 0.42 95 1016.2
20260903074959 65 64 0.0 0.0 0.00 0.42 0.42 95 1016.2
20260903074459 65 64 0.0 0.0 0.00 0.42 0.42 95 1016.2
20260903073459 65 64 0.0 0.0 0.01 0.42 0.42 95 1016.4
20260903072958 65 64 0.0 0.0 0.01 0.42 0.42 95 1016.4
20260903072459 65 64 0.0 0.0 0.01 0.42 0.42 95 1016.5
20260903071958 65 64 0.0 0.0 0.01 0.42 0.42 95 1016.6
20260903071459 65 64 0.0 0.0 0.02 0.42 0.42 95 1016.7
20260903070959 65 64 0.0 0.0 0.03 0.42 0.42 95 1016.7
20260903070459 65 64 0.0 0.0 0.04 0.42 0.42 95 1016.5
20260903065958 65 64 0.0 0.0 0.09 0.42 0.42 95 1016.5
20260903065458 65 64 0.0 1.0 0.18 0.42 0.42 95 1016.5
20260903064957 65 64 0.0 1.0 0.35 0.42 0.42 95 1016.5
20260903064457 64 64 0.0 1.0 0.40 0.42 0.42 95 1016.5
20260903063958 64 64 0.0 1.0 0.41 0.42 0.42 94 1016.4
20260903062958 64 64 0.0 0.0 0.41 0.41 0.41 94 1016.5
20260903062458 64 64 0.0 3.0 0.41 0.41 0.41 94 1016.7
20260903061958 64 64 0.0 3.0 0.41 0.41 0.41 94 1016.6
20260903061457 64 67 1.0 3.0 0.40 0.40 0.40 94 1016.7
20260903060958 64 58 3.0 3.0 0.39 0.39 0.39 94 1017.0
20260903060458 64 80 1.0 2.0 0.38 0.38 0.38 94 1017.3
20260903060001 64 80 0.0 4.0 0.33 0.33 0.33 94 1018.0
20260903055500 64 105 2.0 4.0 0.24 0.24 0.24 94 1018.0
20260903054958 64 246 0.0 6.0 0.07 0.07 0.07 94 1018.3
20260903054459 65 261 6.0 6.0 0.02 0.02 0.02 94 1018.3
20260903054000 64 59 0.0 0.0 0.01 0.01 0.01 94 1018.0
20260903053459 64 59 0.0 0.0 0.00 0.00 0.00 94 1018.2
20260903052459 64 59 0.0 0.0 0.00 0.00 0.00 94 1018.1
20260903051959 64 53 0.0 0.0 0.00 0.00 0.00 94 1018.1
20260903050459 64 53 0.0 1.0 0.00 0.00 0.00 94 1018.4
20260903050003 64 53 0.0 1.0 0.00 0.00 0.00 93 1018.4
20260903045501 64 53 0.0 1.0 0.00 0.00 0.00 93 1018.5
20260903045001 64 53 0.0 1.0 0.00 0.00 0.00 93 1018.6
20260903044501 64 53 0.0 0.0 0.00 0.00 0.00 93 1018.7
20260903043501 64 53 0.0 1.0 0.00 0.00 0.00 93 1018.7
20260903043001 64 50 0.0 1.0 0.00 0.00 0.00 93 1018.7
20260903042500 64 50 0.0 0.0 0.00 0.00 0.00 93 1018.7
20260903041001 64 50 0.0 1.0 0.00 0.00 0.00 93 1019.0
20260903040501 64 50 0.0 1.0 0.00 0.00 0.00 92 1019.1
20260903040000 64 50 0.0 1.0 0.00 0.00 0.00 92 1019.1
20260903035500 63 50 0.0 3.0 0.00 0.00 0.00 92 1018.9
20260903035000 63 50 0.0 3.0 0.00 0.00 0.00 92 1018.7
20260903034459 63 50 1.0 3.0 0.00 0.00 0.00 92 1018.7
20260903033500 63 69 0.0 3.0 0.00 0.00 0.00 92 1018.5
20260903033000 63 63 0.0 3.0 0.00 0.00 0.00 92 1018.5
20260903032000 63 40 4.0 5.0 0.00 0.00 0.00 92 1018.6
20260903030500 64 53 1.0 4.0 0.00 0.00 0.00 91 1019.0
20260903030003 64 71 2.0 4.0 0.00 0.00 0.00 91 1018.9
20260903025501 64 63 1.0 4.0 0.00 0.00 0.00 91 1019.4
20260903025001 63 53 3.0 5.0 0.00 0.00 0.00 91 1019.6
20260903024501 63 67 3.0 5.0 0.00 0.00 0.00 91 1019.5
20260903023500 63 72 3.0 5.0 0.00 0.00 0.00 91 1019.5
20260903023000 63 75 3.0 4.0 0.00 0.00 0.00 91 1019.6
20260903022500 63 71 3.0 4.0 0.00 0.00 0.00 91 1019.7
20260903021501 63 65 2.0 3.0 0.00 0.00 0.00 90 1019.8
20260903021000 63 65 1.0 3.0 0.00 0.00 0.00 90 1019.9
20260903020500 63 56 1.0 3.0 0.00 0.00 0.00 90 1020.0
20260903020003 63 74 2.0 3.0 0.00 0.00 0.00 90 1019.9
20260903015502 63 51 2.0 3.0 0.00 0.01 0.00 90 1020.0
20260903015001 63 51 0.0 3.0 0.00 0.01 0.00 90 1019.8
20260903014500 63 89 0.0 3.0 0.00 0.01 0.00 90 1019.8
20260903014001 64 46 0.0 3.0 0.00 0.01 0.00 89 1019.8
20260903013500 64 32 0.0 3.0 0.00 0.01 0.00 89 1019.8
20260903013001 64 40 0.0 2.0 0.00 0.01 0.00 89 1019.9
20260903012501 64 42 1.0 7.0 0.00 0.01 0.00 89 1019.9
20260903012001 64 42 2.0 7.0 0.00 0.01 0.00 89 1019.9
20260903011500 64 26 1.0 6.0 0.00 0.01 0.00 89 1019.9
20260903011001 64 59 4.0 6.0 0.00 0.01 0.00 89 1019.8
20260903010501 64 53 4.0 5.0 0.00 0.01 0.00 89 1019.9
20260903005459 64 5 1.0 4.0 0.00 0.01 0.00 89 1020.0
20260903004959 64 59 2.0 5.0 0.00 0.01 0.00 89 1020.0
20260903004000 64 72 3.0 5.0 0.00 0.01 0.00 89 1020.2
20260903003500 64 53 3.0 5.0 0.00 0.01 0.00 88 1020.1
20260903002959 64 70 3.0 5.0 0.00 0.01 0.00 89 1020.0
20260903002459 64 82 3.0 4.0 0.00 0.01 0.00 89 1019.9
20260903001959 64 71 3.0 4.0 0.00 0.01 0.00 89 1020.0
20260903001459 64 44 2.0 4.0 0.00 0.01 0.00 89 1019.8
20260903001000 64 57 3.0 5.0 0.00 0.01 0.00 89 1019.7
20260903000500 64 61 0.0 5.0 0.00 0.01 0.00 89 1019.7
20260903000003 64 80 4.0 9.0 0.00 0.01 0.00 89 1019.5
20260902235501 64 74 2.0 9.0 0.00 0.01 0.00 89 1019.6
20260902235001 64 41 4.0 6.0 0.00 0.01 0.00 89 1019.6
20260902234501 64 56 4.0 8.0 0.00 0.01 0.00 89 1019.6
20260902234001 64 76 3.0 8.0 0.00 0.01 0.00 89 1019.7
20260902233501 64 19 4.0 8.0 0.00 0.01 0.00 89 1019.7
20260902233000 64 5 5.0 9.0 0.00 0.01 0.00 89 1019.7
20260902232501 64 89 3.0 6.0 0.00 0.01 0.00 89 1019.9
20260902232001 64 44 3.0 6.0 0.00 0.01 0.00 89 1020.2
20260902231500 64 65 3.0 6.0 0.00 0.01 0.00 89 1020.3
20260902231000 65 5 1.0 6.0 0.00 0.01 0.00 88 1020.2
20260902230501 65 40 1.0 6.0 0.00 0.01 0.00 88 1020.2
20260902230000 65 65 1.0 6.0 0.00 0.25 0.00 88 1020.4
20260902225000 65 53 2.0 4.0 0.00 0.25 0.00 88 1020.5
20260902224500 65 116 2.0 3.0 0.00 0.25 0.00 87 1020.7
20260902223959 65 360 1.0 4.0 0.00 0.25 0.00 87 1020.9
20260902223459 65 41 2.0 5.0 0.00 0.25 0.00 87 1020.8
20260902222959 65 19 0.0 5.0 0.00 0.25 0.00 87 1020.8
20260902222500 65 340 0.0 4.0 0.00 0.25 0.00 87 1020.9
20260902221959 65 54 0.0 4.0 0.00 0.25 0.00 87 1020.9
20260902221500 66 59 2.0 3.0 0.00 0.25 0.00 87 1020.9
20260902221000 66 51 0.0 3.0 0.00 0.25 0.00 87 1020.9
20260902220459 66 61 3.0 4.0 0.00 0.25 0.00 87 1020.9
20260902220003 66 36 2.0 4.0 0.00 0.25 0.00 87 1020.9
20260902215459 66 56 3.0 3.0 0.00 0.26 0.00 86 1020.8
20260902214959 66 38 1.0 4.0 0.00 0.26 0.00 86 1020.8
20260902214459 66 335 2.0 4.0 0.00 0.26 0.00 87 1020.7
20260902214000 66 50 0.0 4.0 0.00 0.26 0.00 86 1020.7
20260902212959 66 41 0.0 4.0 0.00 0.26 0.00 85 1020.8
20260902212459 66 44 0.0 4.0 0.00 0.26 0.00 85 1020.8
20260902212000 66 321 1.0 4.0 0.00 0.26 0.00 85 1020.8
20260902211459 66 61 1.0 4.0 0.00 0.26 0.00 85 1020.7
20260902211000 66 61 1.0 4.0 0.00 0.26 0.00 87 1020.6
20260902205959 66 94 3.0 8.0 0.00 0.26 0.00 86 1020.5
20260902205500 66 71 1.0 6.0 0.00 0.26 0.00 85 1020.7
20260902205000 66 45 4.0 6.0 0.00 0.26 0.00 84 1020.8
20260902204459 66 23 1.0 9.0 0.00 0.26 0.00 84 1020.9
20260902203959 66 34 0.0 11.0 0.00 0.26 0.00 85 1020.6
20260902203500 66 47 3.0 6.0 0.00 0.26 0.00 87 1020.3
20260902202959 66 61 2.0 6.0 0.00 0.26 0.00 86 1020.4
20260902202459 66 24 3.0 7.0 0.00 0.26 0.00 85 1020.5
20260902202000 66 9 3.0 7.0 0.00 0.26 0.00 85 1020.5
20260902201500 67 44 3.0 7.0 0.00 0.26 0.00 86 1020.5
20260902200959 66 26 1.0 3.0 0.00 0.26 0.00 87 1020.4
20260902200500 66 44 2.0 3.0 0.00 0.26 0.00 87 1020.4
20260902200000 66 340 0.0 3.0 0.00 0.26 0.00 87 1020.4
20260902195459 66 332 0.0 2.0 0.00 0.26 0.00 88 1020.6